Regional Weather Roundup
Issued by NWS

Home | Current Version | Previous Version | Graphics & Text | Print | Product List | Glossary On
Versions: 1 2 3 4 5 6 7 8 9 10 11 12 13 14 15 16 17 18 19 20 21 22 23 24 25 26 27 28 29 30 31 32 33 34 35 36 37 38 39 40 41 42 43 44 45 46 47 48 49 50
890
ASUS43 KFSD 272302
RWRSD

WEATHER ROUNDUP FOR SOUTH DAKOTA
NATIONAL WEATHER SERVICE SIOUX FALLS SD
500 PM CST MON FEB 27 2017

NOTE: "FAIR" INDICATES FEW OR NO CLOUDS BELOW 12,000 FEET WITH NO
SIGNIFICANT WEATHER AND/OR OBSTRUCTIONS TO VISIBILITY.


SDZ001>005-009-010-012>017-280000-
NORTHWEST AND NORTH CENTRAL SOUTH DAKOTA

CITY           SKY/WX    TMP DP  RH WIND       PRES   REMARKS
BUFFALO          N/A     35  19  52 NE13      29.56S WCI  26
FAITH            N/A     34  21  59 NE16      29.64R WCI  24
MOBRIDGE       CLOUDY    37  25  61 N12       29.67R
$$

SDZ012>016-024>037-041>051-057-063-072>074-280000-
SOUTHWEST AND SOUTH CENTRAL SOUTH DAKOTA

CITY           SKY/WX    TMP DP  RH WIND       PRES   REMARKS
RAPID CTY ARPT CLOUDY    38  14  37 N13       29.60R
PIERRE         CLOUDY    44  18  35 N15       29.63S
CUSTER         CLOUDY    31  19  61 W7        29.54R WCI  24
ELLSWORTH AFB  CLOUDY    38  11  32 N10       29.60R
PHILIP         CLOUDY    46  26  45 CALM      29.62R
PINE RIDGE     PTSUNNY   40  20  44 CALM      29.59R
SPEARFISH      FAIR      36  18  48 CALM      29.60R
WINNER         FAIR      46  31  55 S16       29.64F
$$

SDZ004>011-016>023-039-040-280000-
NORTHEAST SOUTH DAKOTA

CITY           SKY/WX    TMP DP  RH WIND       PRES   REMARKS
ABERDEEN       PTSUNNY   40  19  43 N8        29.71S
WATERTOWN      CLOUDY    43  26  51 S15       29.70S
BROOKINGS      MOSUNNY   43  23  45 S18       29.72F
SISSETON         N/A     39  31  72 E8        29.71F
$$

SDZ017-020-022-023-036>040-048>070-280000-
SOUTHEAST SOUTH DAKOTA

CITY           SKY/WX    TMP DP  RH WIND       PRES   REMARKS
SIOUX FALLS    MOSUNNY   43  29  57 S17       29.76F
HURON          CLOUDY    48  28  46 S12       29.68S
CHAMBERLAIN    SUNNY     48  32  53 S15       29.66S
MITCHELL       SUNNY     46  27  47 S12       29.72S
YANKTON        PTSUNNY   43  30  61 SE8       29.74R
$$

ABBREVIATIONS USED IN REMARKS
   TC - TEMPERATURE IN CELSIUS
  WCI - WIND CHILL INDEX
   HX - HEAT INDEX
  VSB - VISIBILITY





USA.gov is the U.S. government's official web portal to all federal, state and local government web resources and services.